[[{"header":{"parameterUnit":"m.s-1","parameterCategory":1,"la1":30.2991,"la2":30.254,"lo1":-89.0895,"lo2":-89.0444,"dy":0.0017,"dx":0.0017,"nx":28,"ny":28,"refTime":"2025-06-11T21:00:00:Z","depth":0,"parameterNumber":2,"parameterNumberName":"U-component_of_WINDS"},"data":[0,0,0,0,0,0,0,0,0,0,0,0,0,0,0,0,0,0,0,0,0,0,0,0,0,0,0,0,0,0,0,0,0,0,0,0,0,0,0,0,0,0,0,0,0,0,0,0,0,0,0,0,0,0,0,0,0,0,-2.2981,-2.2981,0,-2.2966,-2.2966,-2.2965,-2.2958,-2.2958,-2.2958,-2.2958,-2.2943,-2.2943,-2.2942,0,0,0,0,0,0,0,0,0,0,0,0,0,-2.3004,-2.3003,-2.2981,-2.2981,-2.298,-2.2966,-2.2966,-2.2965,-2.2958,-2.2958,-2.2958,-2.2958,-2.2943,-2.2943,-2.2942,0,0,0,0,0,0,0,0,0,0,0,0,0,-2.2992,-2.3003,-2.2981,-2.2975,-2.2974,-2.2966,-2.2966,-2.2965,-2.2958,-2.2958,-2.2958,-2.2958,-2.2943,-2.2943,-2.2942,-2.2939,0,0,-2.2941,-2.294,0,0,0,0,0,0,0,0,-2.2992,-2.2991,-2.2976,-2.2975,-2.2974,-2.2963,-2.2968,-2.2957,-2.2958,-2.2964,-2.2958,-2.2958,-2.295,-2.2949,-2.2946,-2.2938,-2.2938,-2.294,-2.294,-2.294,-2.294,0,0,0,0,0,0,0,-2.2993,-2.2991,-2.2975,-2.2976,-2.2975,-2.2973,-2.2971,-2.2966,-2.2957,-2.2963,-2.2963,-2.2961,-2.295,-2.2947,-2.2946,-2.2938,-2.294,-2.294,-2.294,-2.2939,-2.2926,-2.2926,0,0,0,0,0,0,-2.2995,-2.2992,-2.2975,-2.2974,-2.2983,-2.2973,-2.2971,-2.2967,-2.2957,-2.2956,-2.2961,-2.2961,-2.2948,-2.2946,-2.2945,-2.294,-2.294,-2.2939,-2.2939,-2.2926,-2.2926,-2.2926,0,0,0,0,0,0,-2.2995,-2.2993,-2.2976,-2.2983,-2.2981,-2.2972,-2.2968,-2.2967,-2.2964,-2.2955,-2.2954,-2.296,-2.2948,-2.2946,-2.294,-2.294,-2.2939,-2.2939,-2.2926,-2.2926,-2.2926,-2.2931,0,0,0,0,0,0,-2.2996,-2.2994,-2.2992,-2.2983,-2.298,-2.2971,-2.2968,-2.2966,-2.2963,-2.2962,-2.2954,-2.2952,-2.2947,-2.2941,-2.294,-2.2939,-2.2938,-2.2926,-2.2926,-2.2926,-2.293,-2.2931,-2.2931,0,0,0,0,0,-2.2997,-2.2995,-2.2992,-2.299,-2.2979,-2.2971,-2.297,-2.2964,-2.2963,-2.2961,-2.2956,-2.2953,-2.294,-2.2941,-2.2939,-2.2938,-2.2926,-2.2926,-2.2926,-2.293,-2.2931,-2.2931,0,0,0,0,0,0,-2.3005,-2.2994,-2.2991,-2.2986,-2.2979,-2.297,-2.2968,-2.2965,-2.2959,-2.2959,-2.2952,-2.295,-2.2945,-2.2941,-2.2942,-2.2934,-2.2932,-2.2932,-2.2937,-2.2937,-2.2937,-2.2938,-2.2938,0,0,0,0,0,-2.3006,-2.3001,-2.2991,-2.2988,-2.2985,-2.2977,-2.2974,-2.2969,-2.2963,-2.2961,-2.2955,-2.2949,-2.2943,-2.294,-2.2935,-2.293,-2.2928,-2.2928,-2.2928,-2.2929,-2.2928,-2.2925,-2.2925,-2.2925,-2.2925,-2.2925,0,0,-2.3008,-2.3002,-2.2999,-2.2989,-2.2984,-2.2979,-2.2975,-2.297,-2.2966,-2.296,-2.2954,-2.2949,-2.2942,-2.2937,-2.2934,-2.2933,-2.2928,-2.2929,-2.2929,-2.2928,-2.2925,-2.2925,-2.2924,-2.2925,-2.2925,-2.2925,0,0,-2.301,-2.3004,-2.3,-2.2995,-2.2987,-2.2981,-2.298,-2.2971,-2.2968,-2.2962,-2.2957,-2.2952,-2.2943,-2.2938,-2.2934,-2.2933,-2.2929,-2.2931,-2.2932,-2.2929,-2.2929,-2.2929,-2.2928,-2.2927,-2.2931,-2.2931,-2.2931,0,-2.3014,-2.3006,-2.2999,-2.2993,-2.2989,-2.2983,-2.2978,-2.2974,-2.2964,-2.2962,-2.2961,-2.2948,-2.2943,-2.2936,-2.2936,-2.2933,-2.2931,-2.2932,-2.2929,-2.2929,-2.2929,-2.2928,-2.2927,-2.2931,-2.2931,-2.2931,-2.2931,0,-2.3011,-2.3005,-2.3003,-2.2993,-2.2988,-2.2984,-2.2976,-2.2972,-2.2968,-2.2963,-2.2957,-2.295,-2.2943,-2.2941,-2.2937,-2.2933,-2.2933,-2.2931,-2.2929,-2.2929,-2.2928,-2.2928,-2.2931,-2.2931,-2.2931,-2.2931,0,0,-2.3017,-2.3003,-2.3002,-2.2997,-2.2987,-2.2983,-2.2978,-2.297,-2.2967,-2.296,-2.2956,-2.2948,-2.2945,-2.2941,-2.2937,-2.2934,-2.2932,-2.2932,-2.2932,-2.2932,-2.2926,-2.2928,-2.2927,-2.293,-2.293,-2.293,-2.2927,0,-2.3017,-2.3007,-2.3,-2.2993,-2.2987,-2.298,-2.2976,-2.2969,-2.2964,-2.2959,-2.2953,-2.2947,-2.2945,-2.2942,-2.2939,-2.2933,-2.2931,-2.2933,-2.2925,-2.2925,-2.2927,-2.2927,-2.2928,-2.2926,-2.2926,-2.2926,-2.2926,0,-2.3015,-2.3008,-2.3,-2.299,-2.2987,-2.2983,-2.2975,-2.297,-2.2962,-2.2959,-2.2953,-2.2949,-2.2943,-2.2942,-2.2933,-2.2935,-2.2931,-2.2928,-2.2928,-2.2926,-2.2925,-2.2925,-2.2925,-2.2924,-2.2925,-2.2925,-2.2926,0,-2.302,-2.3008,-2.3002,-2.2998,-2.2986,-2.2983,-2.2978,-2.297,-2.2966,-2.2959,-2.2956,-2.2949,-2.2945,-2.2939,-2.2933,-2.2933,-2.2925,-2.2923,-2.2921,-2.2921,-2.292,-2.292,-2.2918,-2.2918,-2.2918,-2.2918,-2.2918,0,-2.302,-2.3015,-2.3003,-2.2999,-2.2993,-2.2986,-2.298,-2.2975,-2.2968,-2.2962,-2.2957,-2.2952,-2.2944,-2.2938,-2.2933,-2.2926,-2.2925,-2.2921,-2.292,-2.2922,-2.2922,-2.2919,-2.2919,-2.2918,-2.2918,-2.2918,-2.2918,0,-2.3024,-2.3016,-2.3008,-2.2997,-2.2994,-2.2991,-2.2981,-2.2977,-2.2971,-2.2965,-2.2963,-2.2954,-2.2947,-2.2939,-2.293,-2.2926,-2.292,-2.2918,-2.2922,-2.2921,-2.2919,-2.292,-2.2916,-2.2915,-2.2915,-2.2915,-2.2915,0,-2.3024,-2.302,-2.3008,-2.3004,-2.2999,-2.2992,-2.2987,-2.298,-2.2975,-2.2965,-2.2962,-2.2954,-2.2948,-2.2936,-2.2929,-2.2921,-2.2919,-2.2919,-2.2918,-2.292,-2.2919,-2.2919,-2.2918,-2.2919,-2.2919,-2.2919,-2.2919,0,-2.3026,-2.3022,-2.3015,-2.3006,-2.3,-2.2993,-2.2986,-2.2983,-2.2973,-2.2968,-2.296,-2.2955,-2.2945,-2.2937,-2.2929,-2.2924,-2.292,-2.2919,-2.2918,-2.2919,-2.2922,-2.292,-2.2922,-2.2919,-2.2919,-2.2919,-2.2919,-2.2919,-2.3027,-2.3023,-2.3014,-2.3006,-2.2999,-2.2993,-2.2988,-2.2981,-2.2974,-2.2965,-2.2961,-2.2953,-2.2945,-2.2933,-2.2927,-2.2921,-2.292,-2.2919,-2.2918,-2.2918,-2.2918,-2.2923,-2.292,-2.292,-2.292,-2.292,-2.292,0,-2.3028,-2.3021,-2.3014,-2.3004,-2.2997,-2.2993,-2.2985,-2.298,-2.2973,-2.2965,-2.2959,-2.2949,-2.2941,-2.2933,-2.2925,-2.2921,-2.2919,-2.2919,-2.2919,-2.2918,-2.292,-2.2921,-2.2921,-2.2921,-2.2921,-2.2921,-2.2921,-2.2921,-2.3027,-2.3019,-2.3014,-2.3003,-2.2997,-2.2988,-2.2984,-2.2977,-2.2971,-2.2961,-2.2954,-2.2948,-2.2941,-2.2931,-2.2924,-2.2922,-2.2919,-2.2919,-2.2917,-2.2918,-2.2918,-2.2918,-2.2919,-2.2919,-2.2919,-2.2915,-2.2915,-2.2915]},{"header":{"parameterUnit":"m.s-1","parameterCategory":1,"la1":30.2991,"la2":30.254,"lo1":-89.0895,"lo2":-89.0444,"dy":0.0017,"dx":0.0017,"nx":28,"ny":28,"refTime":"2025-06-11T21:00:00:Z","depth":0,"parameterNumber":3,"parameterNumberName":"V-component_of_WINDS"},"data":[0,0,0,0,0,0,0,0,0,0,0,0,0,0,0,0,0,0,0,0,0,0,0,0,0,0,0,0,0,0,0,0,0,0,0,0,0,0,0,0,0,0,0,0,0,0,0,0,0,0,0,0,0,0,0,0,0,0,4.5086,4.5086,0,4.5088,4.5088,4.5088,4.5083,4.5083,4.5083,4.5083,4.5084,4.5085,4.5085,0,0,0,0,0,0,0,0,0,0,0,0,0,4.5079,4.5079,4.5086,4.5086,4.5086,4.5088,4.5088,4.5088,4.5083,4.5083,4.5083,4.5083,4.5084,4.5085,4.5085,0,0,0,0,0,0,0,0,0,0,0,0,0,4.5082,4.5079,4.5086,4.5084,4.5084,4.5088,4.5088,4.5088,4.5083,4.5083,4.5083,4.5083,4.5084,4.5085,4.5085,4.509,0,0,4.5086,4.5086,0,0,0,0,0,0,0,0,4.5082,4.5082,4.5084,4.5084,4.5084,4.5085,4.5086,4.5089,4.5083,4.5084,4.5083,4.5083,4.5085,4.5085,4.5086,4.5091,4.5091,4.5086,4.5086,4.5086,4.5086,0,0,0,0,0,0,0,4.5081,4.5082,4.5087,4.5084,4.5084,4.5083,4.5083,4.5086,4.5085,4.5084,4.5083,4.5083,4.5085,4.5085,4.5086,4.5091,4.5086,4.5086,4.5086,4.5086,4.51,4.5101,0,0,0,0,0,0,4.5081,4.5082,4.5087,4.5087,4.5082,4.5083,4.5084,4.5085,4.5085,4.5085,4.5084,4.5083,4.5085,4.5085,4.5086,4.5092,4.5086,4.5086,4.5086,4.51,4.51,4.5101,0,0,0,0,0,0,4.5081,4.5082,4.5087,4.5084,4.5085,4.5084,4.5085,4.5085,4.5086,4.5085,4.5085,4.5085,4.5085,4.5085,4.5089,4.5092,4.5086,4.5086,4.51,4.51,4.51,4.5106,0,0,0,0,0,0,4.5081,4.5082,4.5084,4.5084,4.5085,4.509,4.5086,4.5085,4.5086,4.5086,4.5086,4.5086,4.5085,4.5089,4.509,4.5093,4.5087,4.51,4.51,4.51,4.5105,4.5106,4.5107,0,0,0,0,0,4.5081,4.5085,4.5084,4.5085,4.5087,4.509,4.5091,4.5089,4.5087,4.5089,4.5088,4.5086,4.5092,4.5089,4.509,4.5093,4.5099,4.51,4.51,4.5105,4.5106,4.5107,0,0,0,0,0,0,4.5085,4.5085,4.5084,4.5089,4.5089,4.5089,4.5092,4.509,4.5092,4.5091,4.5089,4.509,4.5094,4.5094,4.5091,4.5099,4.5095,4.5096,4.5098,4.51,4.51,4.51,4.5087,0,0,0,0,0,4.5087,4.5089,4.5089,4.5093,4.5094,4.5093,4.5094,4.5093,4.5094,4.5094,4.5094,4.5095,4.5097,4.5098,4.51,4.5105,4.5105,4.5108,4.5109,4.511,4.511,4.5113,4.5114,4.5102,4.5102,4.5102,0,0,4.509,4.509,4.5092,4.5094,4.5095,4.5097,4.5093,4.5096,4.5098,4.5094,4.5098,4.5098,4.5099,4.5104,4.5106,4.5104,4.5113,4.511,4.5111,4.5111,4.5113,4.5115,4.5116,4.5103,4.5103,4.5103,0,0,4.5097,4.5097,4.5101,4.5102,4.5102,4.5102,4.5103,4.5103,4.5103,4.5107,4.5105,4.5107,4.511,4.5111,4.5112,4.512,4.5118,4.512,4.5125,4.5128,4.5128,4.5129,4.5132,4.5133,4.5121,4.5121,4.5121,0,4.51,4.5104,4.5103,4.5106,4.5107,4.5104,4.5108,4.5109,4.511,4.5111,4.5109,4.5114,4.5114,4.5119,4.5121,4.5122,4.5122,4.512,4.5128,4.5129,4.513,4.5132,4.5133,4.5121,4.5121,4.5121,4.5121,0,4.5108,4.5111,4.5114,4.5115,4.5117,4.512,4.5119,4.5121,4.512,4.512,4.5124,4.5124,4.5126,4.5127,4.5126,4.5132,4.5131,4.5129,4.5125,4.5131,4.5134,4.5135,4.5122,4.5122,4.5122,4.5122,0,0,4.5117,4.5119,4.512,4.5121,4.5122,4.5124,4.5127,4.5129,4.513,4.5132,4.5134,4.5138,4.5136,4.5137,4.5136,4.5138,4.5144,4.5136,4.5136,4.5137,4.5151,4.5152,4.5153,4.5143,4.5143,4.5144,4.5151,0,4.5124,4.513,4.5129,4.5134,4.5137,4.5134,4.5137,4.5138,4.5138,4.514,4.514,4.5143,4.514,4.5141,4.5143,4.5143,4.5147,4.5143,4.5146,4.5146,4.5145,4.5154,4.5156,4.5162,4.5152,4.5152,4.5152,0,4.5132,4.5134,4.514,4.5141,4.5142,4.5144,4.5146,4.5148,4.515,4.5149,4.5151,4.5149,4.5153,4.515,4.5154,4.5151,4.5152,4.5153,4.5153,4.5153,4.5149,4.5154,4.5164,4.5165,4.5153,4.5153,4.5153,0,4.5138,4.5142,4.5146,4.5147,4.5148,4.515,4.5151,4.5152,4.5153,4.5155,4.5156,4.5158,4.5159,4.5161,4.516,4.5158,4.5165,4.5161,4.5164,4.5165,4.5166,4.5166,4.5176,4.5167,4.5167,4.5167,4.5167,0,4.5145,4.5149,4.5149,4.5151,4.5155,4.5154,4.5158,4.5158,4.5159,4.5162,4.516,4.5163,4.5162,4.5164,4.5164,4.5167,4.5168,4.5168,4.5168,4.5168,4.5168,4.5168,4.5168,4.5167,4.5167,4.5167,4.5167,0,4.5152,4.5152,4.5156,4.5157,4.5158,4.5161,4.5161,4.5164,4.5164,4.5167,4.5168,4.5168,4.517,4.517,4.5173,4.5173,4.5177,4.5177,4.5177,4.5177,4.518,4.5179,4.5191,4.5192,4.5183,4.5183,4.5183,0,4.5157,4.5159,4.5161,4.5162,4.5163,4.5166,4.5167,4.5167,4.5168,4.517,4.5172,4.5175,4.5177,4.5181,4.5181,4.5184,4.5183,4.5187,4.5183,4.5183,4.5183,4.5182,4.5183,4.5187,4.5187,4.5187,4.5188,0,4.5165,4.5165,4.5167,4.5169,4.5171,4.5173,4.5174,4.5176,4.5175,4.5177,4.518,4.5182,4.5185,4.5187,4.5189,4.519,4.5189,4.5189,4.519,4.5189,4.5189,4.5189,4.5178,4.5188,4.5188,4.5188,4.5188,4.5188,4.517,4.5172,4.5174,4.5177,4.5178,4.5179,4.5182,4.5182,4.5184,4.5187,4.5187,4.519,4.5191,4.5194,4.5195,4.5197,4.5196,4.5197,4.5198,4.5198,4.5198,4.5189,4.5198,4.5198,4.5198,4.5198,4.5198,0,4.5178,4.5179,4.5181,4.5183,4.5186,4.5184,4.5186,4.5188,4.5191,4.5192,4.5194,4.5198,4.52,4.5201,4.5203,4.5205,4.5205,4.5206,4.5206,4.5206,4.5199,4.5198,4.5206,4.5206,4.5206,4.5206,4.5206,4.5206,4.5182,4.5186,4.5186,4.519,4.5191,4.5194,4.5196,4.5197,4.5198,4.5202,4.5204,4.5205,4.5206,4.5209,4.5211,4.5211,4.5212,4.5213,4.5213,4.5207,4.5206,4.5205,4.5204,4.5214,4.5214,4.5219,4.522,4.522]}]]